Year,Month,Day,Hour,Minute,Value (Times are PST for temperature in C)
2015,01,21,07,41,0.70
2015,01,21,07,42,0.60
2015,01,21,07,43,0.60
2015,01,21,07,44,0.60
2015,01,21,07,45,0.60
2015,01,21,07,46,0.60
2015,01,21,07,47,0.60
2015,01,21,07,49,0.70
2015,01,21,07,50,0.70
2015,01,21,07,51,0.70
2015,01,21,07,52,0.70
2015,01,21,07,53,0.70
2015,01,21,07,54,0.70
2015,01,21,07,55,0.70
2015,01,21,07,56,0.70
2015,01,21,07,57,0.80
2015,01,21,07,58,0.80
2015,01,21,07,59,0.80
2015,01,21,08,00,0.80
2015,01,21,08,01,0.80
2015,01,21,08,02,0.80
2015,01,21,08,03,0.80
2015,01,21,08,04,0.80
2015,01,21,08,05,0.80
2015,01,21,08,06,0.90
2015,01,21,08,07,0.90
2015,01,21,08,08,0.90
2015,01,21,08,09,0.90
2015,01,21,08,10,0.90
2015,01,21,08,11,0.90
2015,01,21,08,12,0.90
2015,01,21,08,13,0.90
2015,01,21,08,14,0.90
2015,01,21,08,15,0.90
2015,01,21,08,16,0.90
2015,01,21,08,17,0.90
2015,01,21,08,18,0.90
2015,01,21,08,19,1.00
2015,01,21,08,20,1.00
2015,01,21,08,21,1.00
2015,01,21,08,22,1.00
2015,01,21,08,23,1.00
2015,01,21,08,24,1.00
2015,01,21,08,25,1.10
2015,01,21,08,26,1.10
2015,01,21,08,27,1.10
2015,01,21,08,28,1.10
2015,01,21,08,29,1.10
2015,01,21,08,30,1.10
2015,01,21,08,31,1.10
2015,01,21,08,32,1.10
2015,01,21,08,33,1.10
2015,01,21,08,34,1.10
2015,01,21,08,35,1.10
2015,01,21,08,36,1.10
2015,01,21,08,37,1.10
2015,01,21,08,38,1.10
2015,01,21,08,39,1.10
2015,01,21,08,40,1.10
2015,01,21,08,41,1.10
2015,01,21,08,42,1.10
2015,01,21,08,43,1.10
2015,01,21,08,44,1.10
2015,01,21,08,45,1.10
2015,01,21,08,46,1.10
2015,01,21,08,47,1.10
2015,01,21,08,48,1.10
2015,01,21,08,49,1.10
2015,01,21,08,50,1.20
2015,01,21,08,51,1.20
2015,01,21,08,52,1.20
2015,01,21,08,53,1.20
2015,01,21,08,54,1.20
2015,01,21,08,55,1.20
2015,01,21,08,56,1.20
2015,01,21,08,57,1.30
2015,01,21,08,58,1.30
2015,01,21,08,59,1.30
2015,01,21,09,00,1.30
2015,01,21,09,01,1.30
2015,01,21,09,02,1.30
2015,01,21,09,03,1.30
2015,01,21,09,04,1.30
2015,01,21,09,05,1.30
2015,01,21,09,06,1.30
2015,01,21,09,07,1.30
2015,01,21,09,08,1.30
2015,01,21,09,09,1.30
2015,01,21,09,10,1.30
2015,01,21,09,11,1.30
2015,01,21,09,12,1.30
2015,01,21,09,13,1.30
2015,01,21,09,14,1.30
2015,01,21,09,15,1.30
2015,01,21,09,16,1.30
2015,01,21,09,17,1.30
2015,01,21,09,18,1.30
2015,01,21,09,19,1.30
2015,01,21,09,20,1.40
2015,01,21,09,21,1.40
2015,01,21,09,22,1.40
2015,01,21,09,23,1.40
2015,01,21,09,24,1.40
2015,01,21,09,25,1.50
2015,01,21,09,26,1.50
2015,01,21,09,27,1.50
2015,01,21,09,28,1.50
2015,01,21,09,29,1.60
2015,01,21,09,30,1.60
2015,01,21,09,31,1.60
2015,01,21,09,32,1.60
2015,01,21,09,33,1.70
2015,01,21,09,34,1.70
2015,01,21,09,35,1.70
2015,01,21,09,36,1.70
2015,01,21,09,37,1.70
2015,01,21,09,38,1.80
2015,01,21,09,39,1.80
2015,01,21,09,40,1.80
2015,01,21,09,41,1.80
2015,01,21,09,42,1.90
2015,01,21,09,43,1.90
2015,01,21,09,44,2.00
2015,01,21,09,45,2.00
2015,01,21,09,46,2.10
2015,01,21,09,47,2.10
2015,01,21,09,48,2.20
2015,01,21,09,49,2.30
2015,01,21,09,50,2.30
2015,01,21,09,51,2.40
2015,01,21,09,52,2.40
2015,01,21,09,53,2.50
2015,01,21,09,54,2.60
2015,01,21,09,55,2.60
2015,01,21,09,56,2.70
2015,01,21,09,57,2.70
2015,01,21,09,58,2.70
2015,01,21,09,59,2.70
2015,01,21,10,00,2.80
2015,01,21,10,01,2.80
2015,01,21,10,02,2.80
2015,01,21,10,03,2.80
2015,01,21,10,04,2.80
2015,01,21,10,05,2.80
2015,01,21,10,06,2.80
2015,01,21,10,07,2.90
2015,01,21,10,08,2.90
2015,01,21,10,09,2.90
2015,01,21,10,10,2.90
2015,01,21,10,11,2.90
2015,01,21,10,12,2.90
2015,01,21,10,13,2.90
2015,01,21,10,14,2.90
2015,01,21,10,15,2.90
2015,01,21,10,16,2.90
2015,01,21,10,17,2.90
2015,01,21,10,18,2.90
2015,01,21,10,19,2.90
2015,01,21,10,20,3.00
2015,01,21,10,21,3.00
2015,01,21,10,22,3.00
2015,01,21,10,23,3.10
2015,01,21,10,24,3.10
2015,01,21,10,25,3.10
2015,01,21,10,26,3.10
2015,01,21,10,27,3.20
2015,01,21,10,28,3.20
2015,01,21,10,29,3.20
2015,01,21,10,30,3.20
2015,01,21,10,31,3.30
2015,01,21,10,32,3.30
2015,01,21,10,33,3.30
2015,01,21,10,34,3.40
2015,01,21,10,35,3.40
2015,01,21,10,36,3.40
2015,01,21,10,37,3.50
2015,01,21,10,38,3.50
2015,01,21,10,39,3.60
2015,01,21,10,40,3.60
2015,01,21,10,41,3.60
2015,01,21,10,42,3.70
2015,01,21,10,43,3.70
2015,01,21,10,44,3.70
2015,01,21,10,45,3.80
2015,01,21,10,46,3.80
2015,01,21,10,47,3.80
2015,01,21,10,48,3.90
2015,01,21,10,49,3.90
2015,01,21,10,50,3.90
2015,01,21,10,51,3.90
2015,01,21,10,52,3.90
2015,01,21,10,53,4.00
2015,01,21,10,54,4.00
2015,01,21,10,55,4.00
2015,01,21,10,56,4.00
2015,01,21,10,57,4.00
2015,01,21,10,58,4.00
2015,01,21,10,59,4.10
2015,01,21,11,00,4.10
2015,01,21,11,01,4.10
2015,01,21,11,02,4.10
2015,01,21,11,03,4.10
2015,01,21,11,04,4.10
2015,01,21,11,05,4.10
2015,01,21,11,06,4.10
2015,01,21,11,07,4.10
2015,01,21,11,08,4.10
2015,01,21,11,09,4.10
2015,01,21,11,10,4.20
2015,01,21,11,11,4.20
2015,01,21,11,12,4.20
2015,01,21,11,13,4.20
2015,01,21,11,14,4.20
2015,01,21,11,15,4.30
2015,01,21,11,16,4.30
2015,01,21,11,17,4.30
2015,01,21,11,18,4.30
2015,01,21,11,19,4.30
2015,01,21,11,20,4.30
2015,01,21,11,21,4.30
2015,01,21,11,22,4.30
2015,01,21,11,23,4.30
2015,01,21,11,24,4.40
2015,01,21,11,25,4.40
2015,01,21,11,26,4.40
2015,01,21,11,27,4.50
2015,01,21,11,28,4.50
2015,01,21,11,29,4.50
2015,01,21,11,30,4.50
2015,01,21,11,31,4.60
2015,01,21,11,32,4.60
2015,01,21,11,33,4.60
2015,01,21,11,34,4.60
2015,01,21,11,35,4.60
2015,01,21,11,36,4.60
2015,01,21,11,37,4.60
2015,01,21,11,38,4.60
2015,01,21,11,39,4.70
2015,01,21,11,40,4.70
2015,01,21,11,41,4.70
2015,01,21,11,42,4.70
2015,01,21,11,43,4.70
2015,01,21,11,44,4.70
2015,01,21,11,45,4.80
2015,01,21,11,46,4.80
2015,01,21,11,47,4.80
2015,01,21,11,48,4.80
2015,01,21,11,49,4.80
2015,01,21,11,50,4.80
2015,01,21,11,51,4.80
2015,01,21,11,52,4.90
2015,01,21,11,53,4.90
2015,01,21,11,54,4.90
2015,01,21,11,55,4.90
2015,01,21,11,56,5.00
2015,01,21,11,57,5.00
2015,01,21,11,58,5.00
2015,01,21,11,59,5.10
2015,01,21,12,00,5.10
2015,01,21,12,01,5.10
2015,01,21,12,02,5.10
2015,01,21,12,03,5.10
2015,01,21,12,04,5.10
2015,01,21,12,05,5.20
2015,01,21,12,06,5.20
2015,01,21,12,07,5.20
2015,01,21,12,08,5.20
2015,01,21,12,09,5.20
2015,01,21,12,10,5.30
2015,01,21,12,11,5.30
2015,01,21,12,12,5.30
2015,01,21,12,13,5.30
2015,01,21,12,14,5.30
2015,01,21,12,15,5.30
2015,01,21,12,16,5.30
2015,01,21,12,17,5.40
2015,01,21,12,18,5.40
2015,01,21,12,19,5.40
2015,01,21,12,20,5.50
2015,01,21,12,21,5.50
2015,01,21,12,22,5.60
2015,01,21,12,23,5.70
2015,01,21,12,24,5.70
2015,01,21,12,25,5.70
2015,01,21,12,26,5.80
2015,01,21,12,27,5.80
2015,01,21,12,28,5.80
2015,01,21,12,29,5.90
2015,01,21,12,30,5.90
2015,01,21,12,31,5.90
2015,01,21,12,32,5.90
2015,01,21,12,33,5.90
2015,01,21,12,34,5.90
2015,01,21,12,35,5.90
2015,01,21,12,36,5.90
2015,01,21,12,37,5.90
2015,01,21,12,38,5.90
2015,01,21,12,39,5.90
2015,01,21,12,40,5.90
2015,01,21,12,41,5.90
2015,01,21,12,42,5.80
2015,01,21,12,43,5.80
2015,01,21,12,44,5.80
2015,01,21,12,45,5.90
2015,01,21,12,46,5.90
2015,01,21,12,47,5.90
2015,01,21,12,48,5.90
2015,01,21,12,49,5.90
2015,01,21,12,50,5.90
2015,01,21,12,51,5.90
2015,01,21,12,52,5.90
2015,01,21,12,53,5.90
2015,01,21,12,54,5.90
2015,01,21,12,55,5.90
2015,01,21,12,56,5.90
2015,01,21,12,57,5.90
2015,01,21,12,58,6.00
2015,01,21,12,59,6.00
2015,01,21,13,00,6.00
2015,01,21,13,01,6.00
2015,01,21,13,02,6.00
2015,01,21,13,03,6.00
2015,01,21,13,04,6.10
2015,01,21,13,05,6.10
2015,01,21,13,06,6.10
2015,01,21,13,07,6.10
2015,01,21,13,08,6.20
2015,01,21,13,09,6.20
2015,01,21,13,10,6.20
2015,01,21,13,11,6.20
2015,01,21,13,12,6.20
2015,01,21,13,13,6.30
2015,01,21,13,14,6.30
2015,01,21,13,15,6.30
2015,01,21,13,16,6.30
2015,01,21,13,17,6.30
2015,01,21,13,18,6.30
2015,01,21,13,19,6.20
2015,01,21,13,20,6.20
2015,01,21,13,21,6.20
2015,01,21,13,22,6.30
2015,01,21,13,23,6.30
2015,01,21,13,24,6.30
2015,01,21,13,25,6.30
2015,01,21,13,26,6.30
2015,01,21,13,27,6.30
2015,01,21,13,28,6.30
2015,01,21,13,29,6.30
2015,01,21,13,30,6.40
2015,01,21,13,31,6.40
2015,01,21,13,32,6.40
2015,01,21,13,33,6.40
2015,01,21,13,34,6.40
2015,01,21,13,35,6.40
2015,01,21,13,36,6.40
2015,01,21,13,37,6.40
2015,01,21,13,38,6.40
2015,01,21,13,39,6.40
2015,01,21,13,40,6.40
2015,01,21,13,41,6.40
2015,01,21,13,42,6.40
2015,01,21,13,43,6.40
2015,01,21,13,44,6.40
2015,01,21,13,45,6.50
2015,01,21,13,46,6.50
2015,01,21,13,47,6.50
2015,01,21,13,48,6.50
2015,01,21,13,49,6.50
2015,01,21,13,50,6.50
2015,01,21,13,51,6.50
2015,01,21,13,52,6.50
2015,01,21,13,53,6.50
2015,01,21,13,54,6.40
2015,01,21,13,55,6.50
2015,01,21,13,56,6.50
2015,01,21,13,57,6.50
2015,01,21,13,58,6.50
2015,01,21,13,59,6.50
2015,01,21,14,00,6.50
2015,01,21,14,01,6.40
2015,01,21,14,02,6.40
2015,01,21,14,03,6.40
2015,01,21,14,04,6.40
2015,01,21,14,05,6.40
2015,01,21,14,06,6.40
2015,01,21,14,07,6.40
2015,01,21,14,08,6.40
2015,01,21,14,09,6.40
2015,01,21,14,10,6.40
2015,01,21,14,11,6.40
2015,01,21,14,12,6.40
2015,01,21,14,13,6.40
2015,01,21,14,14,6.50
2015,01,21,14,15,6.50
2015,01,21,14,16,6.50
2015,01,21,14,17,6.50
2015,01,21,14,18,6.50
2015,01,21,14,19,6.50
2015,01,21,14,20,6.60
2015,01,21,14,21,6.60
2015,01,21,14,22,6.60
2015,01,21,14,23,6.60
2015,01,21,14,24,6.60
2015,01,21,14,25,6.60
2015,01,21,14,26,6.60
2015,01,21,14,27,6.60
2015,01,21,14,28,6.60
2015,01,21,14,29,6.60
2015,01,21,14,30,6.60
2015,01,21,14,31,6.60
2015,01,21,14,32,6.60
2015,01,21,14,33,6.60
2015,01,21,14,34,6.60
2015,01,21,14,35,6.60
2015,01,21,14,36,6.70
2015,01,21,14,37,6.70
2015,01,21,14,38,6.70
2015,01,21,14,39,6.70
2015,01,21,14,40,6.70
2015,01,21,14,41,6.70
2015,01,21,14,42,6.70
2015,01,21,14,43,6.70
2015,01,21,14,44,6.70
2015,01,21,14,45,6.70
2015,01,21,14,46,6.70
2015,01,21,14,47,6.70
2015,01,21,14,48,6.70
2015,01,21,14,49,6.70
2015,01,21,14,50,6.70
2015,01,21,14,51,6.70
2015,01,21,14,52,6.70
2015,01,21,14,53,6.70
2015,01,21,14,54,6.70
2015,01,21,14,55,6.70
2015,01,21,14,56,6.70
2015,01,21,14,57,6.70
2015,01,21,14,58,6.70
2015,01,21,14,59,6.70
2015,01,21,15,00,6.70
2015,01,21,15,01,6.70
2015,01,21,15,02,6.70
2015,01,21,15,03,6.70
2015,01,21,15,04,6.70
2015,01,21,15,05,6.70
2015,01,21,15,06,6.70
2015,01,21,15,07,6.70
2015,01,21,15,08,6.70
2015,01,21,15,09,6.70
2015,01,21,15,10,6.70
2015,01,21,15,11,6.70
2015,01,21,15,12,6.70
2015,01,21,15,13,6.70
2015,01,21,15,14,6.70
2015,01,21,15,15,6.70
2015,01,21,15,16,6.60
2015,01,21,15,17,6.60
2015,01,21,15,18,6.60
2015,01,21,15,19,6.60
2015,01,21,15,20,6.60
2015,01,21,15,21,6.60
2015,01,21,15,22,6.60
2015,01,21,15,23,6.60
2015,01,21,15,24,6.60
2015,01,21,15,25,6.60
2015,01,21,15,26,6.60
2015,01,21,15,27,6.60
2015,01,21,15,28,6.60
2015,01,21,15,29,6.60
2015,01,21,15,30,6.60
2015,01,21,15,31,6.60
2015,01,21,15,32,6.60
2015,01,21,15,33,6.60
2015,01,21,15,34,6.60
2015,01,21,15,35,6.60
2015,01,21,15,36,6.60
2015,01,21,15,37,6.60
2015,01,21,15,38,6.60
2015,01,21,15,39,6.60
2015,01,21,15,40,6.60
2015,01,21,15,41,6.60
2015,01,21,15,42,6.60
2015,01,21,15,43,6.60
2015,01,21,15,44,6.60
2015,01,21,15,45,6.60
2015,01,21,15,46,6.60
2015,01,21,15,47,6.60
2015,01,21,15,48,6.60
2015,01,21,15,49,6.60
2015,01,21,15,50,6.60
2015,01,21,15,51,6.60
2015,01,21,15,52,6.60
2015,01,21,15,53,6.60
2015,01,21,15,54,6.60
2015,01,21,15,55,6.60
2015,01,21,15,56,6.60
2015,01,21,15,57,6.60
2015,01,21,15,58,6.60
2015,01,21,15,59,6.60
2015,01,21,16,00,6.60
2015,01,21,16,01,6.60
2015,01,21,16,02,6.60
2015,01,21,16,03,6.60
2015,01,21,16,04,6.60
2015,01,21,16,05,6.50
2015,01,21,16,06,6.50
2015,01,21,16,07,6.50
2015,01,21,16,08,6.50
2015,01,21,16,09,6.50
2015,01,21,16,10,6.50
2015,01,21,16,11,6.50
2015,01,21,16,12,6.50
2015,01,21,16,13,6.40
2015,01,21,16,14,6.40
2015,01,21,16,15,6.40
2015,01,21,16,16,6.40
2015,01,21,16,17,6.40
2015,01,21,16,18,6.40
2015,01,21,16,19,6.40
2015,01,21,16,20,6.40
2015,01,21,16,21,6.40
2015,01,21,16,22,6.30
2015,01,21,16,23,6.30
2015,01,21,16,24,6.30
2015,01,21,16,25,6.30
2015,01,21,16,26,6.30
2015,01,21,16,27,6.30
2015,01,21,16,28,6.30
2015,01,21,16,29,6.20
2015,01,21,16,30,6.20
2015,01,21,16,31,6.20
2015,01,21,16,32,6.20
2015,01,21,16,33,6.20
2015,01,21,16,34,6.20
2015,01,21,16,35,6.20
2015,01,21,16,36,6.20
2015,01,21,16,37,6.20
2015,01,21,16,38,6.20
2015,01,21,16,39,6.20
2015,01,21,16,40,6.20
2015,01,21,16,41,6.10
2015,01,21,16,42,6.10
2015,01,21,16,43,6.10
2015,01,21,16,44,6.10
2015,01,21,16,45,6.10
2015,01,21,16,46,6.10
2015,01,21,16,47,6.10
2015,01,21,16,48,6.10
2015,01,21,16,49,6.10
2015,01,21,16,50,6.10
2015,01,21,16,51,6.10
2015,01,21,16,52,6.10
2015,01,21,16,53,6.00
2015,01,21,16,54,6.00
2015,01,21,16,55,6.00
2015,01,21,16,56,6.00
2015,01,21,16,57,6.00
2015,01,21,16,58,6.00
2015,01,21,16,59,6.00
2015,01,21,17,00,5.90
2015,01,21,17,01,5.90
2015,01,21,17,02,5.90
2015,01,21,17,03,5.90
2015,01,21,17,04,5.90
2015,01,21,17,05,5.90
2015,01,21,17,06,5.90
2015,01,21,17,07,5.90
2015,01,21,17,08,5.80
2015,01,21,17,09,5.80
2015,01,21,17,10,5.80
2015,01,21,17,11,5.80
2015,01,21,17,12,5.80
2015,01,21,17,13,5.80
2015,01,21,17,14,5.80
2015,01,21,17,15,5.80
2015,01,21,17,16,5.80
2015,01,21,17,17,5.80
2015,01,21,17,18,5.80
2015,01,21,17,19,5.80
2015,01,21,17,20,5.80
2015,01,21,17,21,5.80
2015,01,21,17,22,5.80
2015,01,21,17,23,5.80
2015,01,21,17,24,5.80
2015,01,21,17,25,5.80
2015,01,21,17,26,5.80
2015,01,21,17,27,5.80
2015,01,21,17,28,5.80
2015,01,21,17,29,5.80
2015,01,21,17,30,5.80
2015,01,21,17,31,5.80
2015,01,21,17,32,5.80
2015,01,21,17,33,5.80
2015,01,21,17,34,5.80
2015,01,21,17,35,5.80
2015,01,21,17,36,5.80
2015,01,21,17,37,5.80
2015,01,21,17,38,5.80
2015,01,21,17,39,5.80
2015,01,21,17,40,5.80
2015,01,21,17,41,5.70
2015,01,21,17,42,5.70
2015,01,21,17,43,5.70
2015,01,21,17,44,5.70
2015,01,21,17,45,5.70
2015,01,21,17,46,5.70
2015,01,21,17,47,5.70
2015,01,21,17,48,5.70
2015,01,21,17,49,5.70
2015,01,21,17,50,5.70
2015,01,21,17,51,5.70
2015,01,21,17,52,5.70
2015,01,21,17,53,5.70
2015,01,21,17,54,5.70
2015,01,21,17,55,5.70
2015,01,21,17,56,5.70
2015,01,21,17,57,5.70
2015,01,21,17,58,5.70
2015,01,21,17,59,5.70
2015,01,21,18,00,5.70
2015,01,21,18,01,5.70
2015,01,21,18,02,5.70
2015,01,21,18,03,5.70
2015,01,21,18,04,5.70
2015,01,21,18,05,5.70
2015,01,21,18,06,5.70
2015,01,21,18,07,5.70
2015,01,21,18,08,5.70
2015,01,21,18,09,5.70
2015,01,21,18,10,5.70
2015,01,21,18,11,5.70
2015,01,21,18,12,5.70
2015,01,21,18,13,5.70
2015,01,21,18,14,5.70
2015,01,21,18,15,5.70
2015,01,21,18,16,5.70
2015,01,21,18,17,5.70
2015,01,21,18,18,5.70
2015,01,21,18,19,5.70
2015,01,21,18,20,5.60
2015,01,21,18,21,5.70
2015,01,21,18,22,5.60
2015,01,21,18,23,5.60
2015,01,21,18,24,5.70
2015,01,21,18,25,5.60
2015,01,21,18,26,5.70
2015,01,21,18,27,5.60
2015,01,21,18,28,5.60
2015,01,21,18,29,5.60
2015,01,21,18,30,5.60
2015,01,21,18,31,5.60
2015,01,21,18,32,5.60
2015,01,21,18,33,5.60
2015,01,21,18,34,5.60
2015,01,21,18,35,5.60
2015,01,21,18,36,5.60
2015,01,21,18,37,5.60
2015,01,21,18,38,5.60
2015,01,21,18,39,5.60
2015,01,21,18,40,5.60
2015,01,21,18,41,5.60
2015,01,21,18,42,5.60
2015,01,21,18,43,5.60
2015,01,21,18,44,5.60
2015,01,21,18,45,5.60
2015,01,21,18,46,5.60
2015,01,21,18,47,5.60
2015,01,21,18,48,5.60
2015,01,21,18,49,5.60
2015,01,21,18,50,5.60
2015,01,21,18,51,5.60
2015,01,21,18,52,5.60
2015,01,21,18,53,5.60
2015,01,21,18,54,5.60
2015,01,21,18,55,5.60
2015,01,21,18,56,5.60
2015,01,21,18,57,5.60
2015,01,21,18,58,5.60
2015,01,21,18,59,5.60
2015,01,21,19,00,5.60
2015,01,21,19,01,5.60
2015,01,21,19,02,5.60
2015,01,21,19,03,5.60
2015,01,21,19,04,5.60
2015,01,21,19,05,5.50
2015,01,21,19,06,5.60
2015,01,21,19,07,5.60
2015,01,21,19,08,5.60
2015,01,21,19,09,5.60
2015,01,21,19,10,5.60
2015,01,21,19,11,5.60
2015,01,21,19,12,5.60
2015,01,21,19,13,5.60
2015,01,21,19,14,5.60
2015,01,21,19,15,5.60
2015,01,21,19,16,5.60
2015,01,21,19,17,5.60
2015,01,21,19,18,5.60
2015,01,21,19,19,5.60
2015,01,21,19,20,5.60
2015,01,21,19,21,5.60
2015,01,21,19,22,5.60
2015,01,21,19,23,5.60
2015,01,21,19,24,5.60
2015,01,21,19,25,5.60
2015,01,21,19,26,5.60
2015,01,21,19,27,5.50
2015,01,21,19,28,5.50
2015,01,21,19,29,5.50
2015,01,21,19,30,5.50
2015,01,21,19,31,5.50
2015,01,21,19,32,5.50
2015,01,21,19,33,5.50
2015,01,21,19,34,5.50
2015,01,21,19,35,5.50
2015,01,21,19,36,5.50
2015,01,21,19,37,5.50
2015,01,21,19,38,5.50
2015,01,21,19,39,5.50
2015,01,21,19,40,5.50
2015,01,21,19,41,5.50
2015,01,21,19,42,5.50
2015,01,21,19,43,5.40
2015,01,21,19,44,5.40
2015,01,21,19,45,5.40
2015,01,21,19,46,5.40
2015,01,21,19,47,5.40
2015,01,21,19,48,5.40
2015,01,21,19,49,5.40
2015,01,21,19,50,5.40
2015,01,21,19,51,5.40
2015,01,21,19,52,5.40
2015,01,21,19,53,5.40
2015,01,21,19,54,5.40
2015,01,21,19,55,5.40
2015,01,21,19,56,5.40
2015,01,21,19,57,5.40
2015,01,21,19,58,5.40
2015,01,21,19,59,5.40
2015,01,21,20,00,5.40
2015,01,21,20,01,5.40
2015,01,21,20,02,5.40
2015,01,21,20,03,5.30
2015,01,21,20,04,5.30
2015,01,21,20,05,5.30
2015,01,21,20,06,5.30
2015,01,21,20,07,5.30
2015,01,21,20,08,5.30
2015,01,21,20,09,5.30
2015,01,21,20,10,5.30
2015,01,21,20,11,5.30
2015,01,21,20,12,5.30
2015,01,21,20,13,5.30
2015,01,21,20,14,5.30
2015,01,21,20,15,5.30
2015,01,21,20,16,5.30
2015,01,21,20,17,5.30
2015,01,21,20,18,5.30
2015,01,21,20,19,5.30
2015,01,21,20,20,5.30
2015,01,21,20,21,5.30
2015,01,21,20,22,5.30
2015,01,21,20,23,5.30
2015,01,21,20,24,5.30
2015,01,21,20,25,5.30
2015,01,21,20,26,5.30
2015,01,21,20,27,5.20
2015,01,21,20,28,5.20
2015,01,21,20,29,5.20
2015,01,21,20,30,5.20
2015,01,21,20,31,5.20
2015,01,21,20,32,5.20
2015,01,21,20,33,5.30
2015,01,21,20,34,5.20
2015,01,21,20,35,5.20
2015,01,21,20,36,5.30
2015,01,21,20,37,5.20
2015,01,21,20,38,5.30
2015,01,21,20,39,5.30
2015,01,21,20,40,5.30
2015,01,21,20,41,5.30
2015,01,21,20,42,5.30
2015,01,21,20,43,5.30
2015,01,21,20,44,5.30
2015,01,21,20,45,5.30
2015,01,21,20,46,5.30
2015,01,21,20,47,5.30
2015,01,21,20,48,5.30
2015,01,21,20,49,5.30
2015,01,21,20,50,5.30
2015,01,21,20,51,5.30
2015,01,21,20,52,5.30
2015,01,21,20,53,5.30
2015,01,21,20,54,5.30
2015,01,21,20,55,5.30
2015,01,21,20,56,5.30
2015,01,21,20,57,5.30
2015,01,21,20,58,5.30
2015,01,21,20,59,5.30
2015,01,21,21,00,5.30
2015,01,21,21,01,5.30
2015,01,21,21,02,5.30
2015,01,21,21,03,5.30
2015,01,21,21,04,5.30
2015,01,21,21,05,5.30
2015,01,21,21,06,5.30
2015,01,21,21,07,5.30
2015,01,21,21,08,5.30
2015,01,21,21,09,5.30
2015,01,21,21,10,5.30
2015,01,21,21,11,5.30
2015,01,21,21,12,5.20
2015,01,21,21,13,5.30
2015,01,21,21,14,5.30
2015,01,21,21,15,5.20
2015,01,21,21,16,5.20
2015,01,21,21,17,5.20
2015,01,21,21,18,5.30
2015,01,21,21,19,5.20
2015,01,21,21,20,5.20
2015,01,21,21,21,5.20
2015,01,21,21,22,5.20
2015,01,21,21,23,5.20
2015,01,21,21,24,5.20
2015,01,21,21,25,5.20
2015,01,21,21,26,5.20
2015,01,21,21,27,5.20
2015,01,21,21,28,5.20
2015,01,21,21,29,5.20
2015,01,21,21,30,5.20
2015,01,21,21,31,5.20
2015,01,21,21,32,5.20
2015,01,21,21,33,5.20
2015,01,21,21,34,5.20
2015,01,21,21,35,5.20
2015,01,21,21,36,5.20
2015,01,21,21,37,5.20
2015,01,21,21,38,5.20
2015,01,21,21,39,5.20
2015,01,21,21,40,5.30
2015,01,21,21,41,5.30
2015,01,21,21,42,5.30
2015,01,21,21,43,5.30
2015,01,21,21,44,5.30
2015,01,21,21,45,5.30
2015,01,21,21,46,5.30
2015,01,21,21,47,5.30
2015,01,21,21,48,5.30
2015,01,21,21,49,5.30
2015,01,21,21,50,5.30
2015,01,21,21,51,5.30
2015,01,21,21,52,5.20
2015,01,21,21,53,5.20
2015,01,21,21,54,5.20
2015,01,21,21,55,5.20
2015,01,21,21,56,5.20
2015,01,21,21,57,5.20
2015,01,21,21,58,5.20
2015,01,21,21,59,5.20
2015,01,21,22,00,5.20
2015,01,21,22,01,5.20
2015,01,21,22,02,5.20
2015,01,21,22,03,5.20
2015,01,21,22,04,5.20
2015,01,21,22,05,5.20
2015,01,21,22,06,5.20
2015,01,21,22,07,5.20
2015,01,21,22,08,5.20
2015,01,21,22,09,5.20
2015,01,21,22,10,5.20
2015,01,21,22,11,5.20
2015,01,21,22,12,5.20
2015,01,21,22,13,5.20
2015,01,21,22,14,5.20
2015,01,21,22,15,5.20
2015,01,21,22,16,5.20
2015,01,21,22,17,5.20
2015,01,21,22,18,5.20
2015,01,21,22,19,5.20
2015,01,21,22,20,5.20
2015,01,21,22,21,5.20
2015,01,21,22,22,5.20
2015,01,21,22,23,5.20
2015,01,21,22,24,5.20
2015,01,21,22,25,5.20
2015,01,21,22,26,5.20
2015,01,21,22,27,5.20
2015,01,21,22,28,5.20
2015,01,21,22,29,5.20
2015,01,21,22,30,5.20
2015,01,21,22,31,5.20
2015,01,21,22,32,5.20
2015,01,21,22,33,5.20
2015,01,21,22,34,5.20
2015,01,21,22,35,5.20
2015,01,21,22,36,5.20
2015,01,21,22,37,5.20
2015,01,21,22,38,5.20
2015,01,21,22,39,5.20
2015,01,21,22,40,5.10
2015,01,21,22,41,5.20
2015,01,21,22,42,5.10
2015,01,21,22,43,5.10
2015,01,21,22,44,5.10
2015,01,21,22,45,5.10
2015,01,21,22,46,5.10
2015,01,21,22,47,5.10
2015,01,21,22,48,5.10
2015,01,21,22,49,5.10
2015,01,21,22,50,5.10
2015,01,21,22,51,5.10
2015,01,21,22,52,5.10
2015,01,21,22,53,5.10
2015,01,21,22,54,5.10
2015,01,21,22,55,5.10
2015,01,21,22,56,5.10
2015,01,21,22,57,5.10
2015,01,21,22,58,5.10
2015,01,21,22,59,5.10
2015,01,21,23,00,5.10
2015,01,21,23,01,5.10
2015,01,21,23,02,5.10
2015,01,21,23,03,5.10
2015,01,21,23,04,5.10
2015,01,21,23,05,5.10
2015,01,21,23,06,5.10
2015,01,21,23,07,5.10
2015,01,21,23,08,5.10
2015,01,21,23,09,5.10
2015,01,21,23,10,5.10
2015,01,21,23,11,5.10
2015,01,21,23,12,5.10
2015,01,21,23,13,5.10
2015,01,21,23,14,5.10
2015,01,21,23,15,5.10
2015,01,21,23,16,5.10
2015,01,21,23,17,5.10
2015,01,21,23,18,5.10
2015,01,21,23,19,5.10
2015,01,21,23,20,5.10
2015,01,21,23,21,5.10
2015,01,21,23,22,5.10
2015,01,21,23,23,5.10
2015,01,21,23,24,5.10
2015,01,21,23,25,5.10
2015,01,21,23,26,5.10
2015,01,21,23,27,5.10
2015,01,21,23,28,5.10
2015,01,21,23,29,5.10
2015,01,21,23,30,5.10
2015,01,21,23,31,5.10
2015,01,21,23,32,5.10
2015,01,21,23,33,5.10
2015,01,21,23,34,5.10
2015,01,21,23,35,5.10
2015,01,21,23,36,5.10
2015,01,21,23,37,5.10
2015,01,21,23,38,5.10
2015,01,21,23,39,5.10
2015,01,21,23,40,5.10
2015,01,21,23,41,5.10
2015,01,21,23,42,5.10
2015,01,21,23,43,5.10
2015,01,21,23,44,5.10
2015,01,21,23,45,5.00
2015,01,21,23,46,5.00
2015,01,21,23,47,5.00
2015,01,21,23,48,5.00
2015,01,21,23,49,5.00
2015,01,21,23,50,5.00
2015,01,21,23,51,5.00
2015,01,21,23,52,5.00
2015,01,21,23,53,5.00
2015,01,21,23,54,5.00
2015,01,21,23,55,5.00
2015,01,21,23,56,5.00
2015,01,21,23,57,5.00
2015,01,21,23,58,5.00
2015,01,21,23,59,5.00
